Retour au catalogue

STARLINK-38152

ActifCommunicationsSSO
NORAD 100157·PAYLOAD·🇺🇸 United States

Lancé Jul 25, 2026 depuis Vandenberg Space Force Base

Loading…

Prochains Passages (prochaines 24 heures)

TLE

FraisSource: Space-Track

Époque: Sep 14, 2026, 08:19 UTC

1 A0157U 26171K   26257.34666956  .00012335  00000-0  34288-3 0  9999
2 A0157  97.2830 289.8861 0001392 102.7631 257.3769 15.36997750  7953

Suivez STARLINK-38152 en temps réel avec AllMySat

Download on the App Store